Simultaneous Nadir Overpasses (SNOs) Predictions

Prediction of SNOs over PacNW region [( 10.00, 139.50) to ( 22.70, 165.60)] between NOAA-19 and NPP Satellites:

Table of predicted SNOs over PacNW region for the next 30.0 days since TLE Epoch: 12/14/2012
Index Date (NOAA-19) Time (NOAA-19) NOAA-19 Lat,Lon Date (NPP) Time (NPP) NPP Lat,Lon Distance(km) Time Diff (sec)
1 12/22/2012 03:37:44 11.57, 147.42 12/22/2012 03:40:55 10.74, 143.88 396.66 191
2 12/22/2012 16:14:39 18.82, 143.06 12/22/2012 16:13:33 19.35, 140.46 278.63 66
3 12/23/2012 03:30:03 22.64, 147.45 12/23/2012 03:26:26 26.72, 144.76 528.47 217
4 01/03/2013 15:45:14 22.63, 151.14 01/03/2013 15:47:06 23.36, 147.79 351.93 112
5 01/04/2013 03:01:45 22.65, 154.57 01/04/2013 02:59:49 22.17, 152.26 243.89 116
